Flag for U.S.A. Weather past 2 weeks in Annapolis, Maryland, U.S.A.

Now
37 °F

Fog.


Feels Like: 32 °F
Forecast: 23 / 37 °F
Wind: 7 mph from Northwest

Location: Annapolis - United States Naval Academy

Current Time: Mar 5, 2015 at 3:40:03 AM

Latest Report: Mar 5, 2015 at 2:54 AM


Visibility: 6 mi

Pressure: 29.96 "Hg

Humidity: 93%

Dew point: 35 °F

Location of AnnapolisLocation

Historic Weather in Annapolis — Graph

°F

Annapolis temperature yesterday

Maximum temperature yesterday: 43 °F (at 9:54 AM)
Minimum temperature yesterday: 36 °F (at 11:54 AM)
Average temperature yesterday: 39 °F

Past Weeks' High & Low Weather Summary

 TemperatureHumidityPressure
High43 °F (Mar 4, 9:54 AM)100% (Feb 22, 6:54 AM)30.88 "Hg (Feb 22, 6:54 AM)
Low3 °F (Feb 20, 5:54 AM)29% (Feb 20, 3:54 PM)29.75 "Hg (Feb 18, 4:54 PM)
Average27 °F65%30.23 "Hg
* Reported Feb 18 1:54 AM — Mar 5 1:54 AM, Annapolis, Weather by CustomWeather, © 2015

Note: Actual official high and low records may vary slightly from our data, if they occured in-between our weather recording intervals... More about our weather records

Advertising

Annapolis weather history for previous 24 hours

 ConditionsComfort  
Time TempWeatherWind HumidityBarometerVisibility
1:54 AM
Thu, Mar 5
40 °FLight rain. Fog.5 mph97%29.99 "Hg1 mi
12:54 AM40 °FLight rain. Fog.3 mph97%29.96 "Hg2 mi
11:54 PM
Wed, Mar 4
40 °FLight rain. Fog.3 mph97%29.94 "Hg3 mi
10:54 PM40 °FLight rain. Fog.6 mph97%29.95 "Hg4 mi
9:54 PM39 °FLight rain. Fog.3 mph96%29.95 "Hg6 mi
8:54 PM38 °FLight rain. Fog.6 mph93%29.93 "Hg1 mi
7:54 PM36 °FLight rain. Fog.3 mph92%29.91 "Hg1 mi
6:54 PM38 °FLight rain. Fog.No wind97%29.89 "Hg1 mi
5:54 PM38 °FLight rain. Fog.No wind97%29.90 "Hg1 mi
4:54 PM38 °FLight rain. Fog.No wind97%29.90 "Hg0 mi
3:54 PM38 °FLight rain. Fog.No wind97%29.89 "Hg1 mi
2:54 PM36 °FLight rain. Fog.8 mph97%29.88 "Hg0 mi
2:04 PM37 °FFog.8 mph93%29.86 "Hg0 mi
12:54 PM38 °FFog.6 mph93%29.89 "Hg1 mi
11:54 AM36 °FFog.7 mph97%29.92 "Hg1 mi
11:01 AM38 °FLight rain. Fog.No wind97%29.93 "Hg2 mi
10:54 AM37 °FLight rain. Fog.No wind96%29.93 "Hg2 mi
9:54 AM43 °FLight rain. Fog.5 mph86%29.94 "Hg5 mi
8:54 AM39 °FFog.6 mph93%29.94 "Hg4 mi
7:54 AM41 °FFog.No wind89%29.91 "Hg5 mi
6:54 AM40 °FOvercast.No wind89%29.88 "Hg7 mi
5:54 AM39 °FFog.5 mph89%29.87 "Hg6 mi
4:54 AM39 °FLight rain. Overcast.No wind93%29.83 "Hg8 mi
4:03 AM39 °FLight rain. Fog.3 mph89%29.84 "Hg5 mi
3:54 AM39 °FLight rain. Mostly cloudy.7 mph86%29.83 "Hg8 mi
3:01 AM39 °FLight rain. Mostly cloudy.7 mph86%29.84 "Hg10 mi
Weather by CustomWeather, © 2015

See weather overviewHow to use our weather pages